Hourly Data Report for June 09, 2020

BORDEN AWOS
ONTARIO
Current Station Operator: DND

44°16'20.000" N
79°54'42.000" W
222.50 m
611B002
71534
YBN

Download Data

Hourly Data (June 2020)
Hourly Data Report for June 9, 2020
TIME
LST
Temp Definition
°C
Dew Point Definition
°C
Rel Hum Definition
%
Precip. Amount Definition
mm

Wind Dir Definition
10's deg

Wind Spd Definition
km/h
Visibility Definition
km
Stn Press Definition
kPa
Hmdx Definition


Wind Chill Definition


Weather Definition


00:00 12.5 11.3 92     0 14.5 98.72     LegendNANA
01:00 11.4 10.2 92   20 4 14.5 98.70     LegendNANA
02:00 12.8 11.1 89   7 7 14.5 98.65     LegendNANA
03:00 13.3 10.7 84   18 4 14.5 98.62     LegendNANA
04:00 12.2 10.8 91     0 14.5 98.59     LegendNANA
05:00 13.0 11.0 88   18 6 14.5 98.62     LegendNANA
06:00 17.2 12.5 74   21 9 14.5 98.63     LegendNANA
07:00 21.7 10.6 49   23 6 14.5 98.62     LegendNANA
08:00 25.1 12.4 45   31 4 14.5 98.64 28   LegendNANA
09:00 27.8 12.5 39   30 11 14.5 98.61 30   LegendNANA
10:00 29.6 12.7 35   34 13 14.5 98.56 32   LegendNANA
11:00 30.4 12.4 33   32 7 14.5 98.55 33   LegendNANA
12:00 30.6 11.8 32   35 19 14.5 98.55 33   LegendNANA
13:00 30.5 12.5 33   36 11 14.5 98.52 33   LegendNANA
14:00 30.4 12.5 33   36 7 14.5 98.48 33   LegendNANA
15:00 31.0 12.7 33   34 7 14.5 98.42 34   LegendNANA
16:00 30.2 13.2 35   1 7 14.5 98.42 33   LegendNANA
17:00 30.7 14.0 36   3 7 14.5 98.37 34   LegendNANA
18:00 30.7 13.9 36     0 14.5 98.32 34   LegendNANA
19:00 28.7 15.4 44   5 7 14.5 98.29 33   LegendNANA
20:00 26.0 14.4 49   11 13 14.5 98.30 30   LegendNANA
21:00 24.7 15.3 56   15 13 14.5 98.31 29   LegendNANA
22:00 23.1 14.6 59   12 9 14.5 98.28 27   LegendNANA
23:00 22.4 13.9 59   16 7 14.5 98.28 26   LegendNANA

Notes on Data Quality.

Legend

  • E = Estimated
  • M = Missing
  • NA = Not Available*
  • [empty] = Indicates an unobserved value
Date modified: